Preview of NWS' New Version of Forecast
This preview is not operational and should not be used for support decisions.

Regional Weather Roundup (RWR)

Issued by National Weather Service (NWS)

                            
000
ASUS44 KMEG 211410
RWRTN 
TENNESSEE HOURLY STATE WEATHER ROUNDUP
NATIONAL WEATHER SERVICE MEMPHIS TN
900 AM CDT SAT SEP 21 2019

TNZ002-004-019-021-049-052-054-088>092-211500-
WEST TENNESSEE
  
CITY           SKY/WX    TMP DP  RH WIND       PRES   REMARKS
MEMPHIS INTL   FAIR      77  59  53 S10       30.23R                  
NWS MEMPHIS      N/A     74 N/A N/A MISG        N/A                   
JACKSON        FAIR      75  59  57 S6        30.26R                  
DYERSBURG      FAIR      74  63  68 S8        30.24S                  
SOMERVILLE     SUNNY     75  59  57 VRB7G14   30.23S                  
UNION CITY     SUNNY     75  64  69 S7        30.22S                  
BOLIVAR        SUNNY     73  61  64 S8        30.25S                  
PARIS          SUNNY     75  59  57 S9        30.25S                  
HUNTINGDON     SUNNY     73  61  64 S8        30.25S                  
LEXINGTON      SUNNY     72  61  68 SE6       30.26S                  
SELMER         SUNNY     72  57  60 SE8       30.27R                  
SAVANNAH       SUNNY     73  59  60 S7        30.27R                  
$$

TNZ008-025-027-028-033-062-065-066-211500-
NORTH MIDDLE TENNESSEE
  
CITY           SKY/WX    TMP DP  RH WIND       PRES   REMARKS
NASHVILLE      PTSUNNY   76  54  46 S9        30.30R                  
DICKSON        SUNNY     75  54  46 S12G20    30.28R                  
PORTLAND       SUNNY     75  57  53 S12       30.29S                  
CLARKSVILLE    FAIR      74  59  59 S5        30.27S                  
LEBANON        SUNNY     77  54  44 S7        30.29R                  
SMYRNA         FAIR      74  58  57 VRB7      30.31R                  
MURFREESBORO   SUNNY     75  55  50 S6        30.29R                  
LIVINGSTON     SUNNY     73  54  49 SW8       30.33R                  
CROSSVILLE     FAIR      71  51  49 VRB6      30.37S                  
ROCKWOOD       SUNNY     70  55  60 SW8       30.37R                  
$$

TNZ061-075-076-078-094-096-097-211500-
SOUTH MIDDLE TENNESSEE
  
CITY           SKY/WX    TMP DP  RH WIND       PRES   REMARKS
LAWRENCEBURG   SUNNY     73  55  53 S8        30.30S                  
LEWISBURG      SUNNY     75  55  50 SE5       30.30R                  
FAYETTEVILLE   SUNNY     73  59  60 S9        30.31R                  
TULLAHOMA      SUNNY     73  57  56 S7        30.31S                  
WINCHESTER     SUNNY     75  59  57 S7G15     30.32R                  
MCMINNVILLE    SUNNY     75  55  50 CALM      30.32R                  
COLUMBIA       SUNNY     75  55  50 SE7       30.28R                  
SHELBYVILLE    SUNNY     73  55  53 VRB6      30.31R                  
$$

TNZ017-018-042-046-047-211500-
NORTHEAST TENNESSEE
  
CITY           SKY/WX    TMP DP  RH WIND       PRES   REMARKS
TRI CITIES     FAIR      68  61  78 CALM      30.37S                  
ELIZABETHTON   FAIR      68  61  77 SE5       30.37S                  
GREENEVILLE    SUNNY     72  59  64 S5        30.36S                  
$$

TNZ012-013-036-069-073-074-211500-
CENTRAL EAST TENNESSEE
  
CITY           SKY/WX    TMP DP  RH WIND       PRES   REMARKS
KNOXVILLE      FAIR      73  59  61 W6        30.34R                  
OAK RIDGE      FAIR      74  60  61 VRB3      30.35S                  
DOWNTOWN KNOXV SUNNY     72  64  78 CALM      30.34S                  
GATLINBURG     SUNNY     73  63  68 CALM      30.34S                  
MORRISTOWN     SUNNY     73  59  60 SW3       30.34F                  
JACKSBORO      SUNNY     70  64  83 CALM      30.37F                  
$$

TNZ083-085-099-211500-
SOUTHEAST TENNESSEE
  
CITY           SKY/WX    TMP DP  RH WIND       PRES   REMARKS
CHATTANOOGA    FAIR      72  58  61 CALM      30.34S                  
$$

SKY/WX REPORTED AS FAIR MEANS FEW OR NO CLOUDS BELOW
12 THOUSAND FEET.